{"data":{"norad_id":53718,"epoch":"2026-05-24T15:03:14.737824Z","epoch_age_seconds":100465,"freshness":"FRESH","line1":"1 53718U 22107U   26144.62725391  .00000010  00000+0  18695-4 0  9991","line2":"2 53718  53.2160 273.4869 0001231  87.7106 272.4027 15.08840277205865","mean_motion":15.08840277,"eccentricity":0.0001231,"inclination_deg":53.216,"raan_deg":273.4869,"arg_perigee_deg":87.7106,"mean_anomaly_deg":272.4027,"bstar":1.8695e-5,"rev_number":20586,"period_min":95.43753715689,"perigee_km":538.89095131439,"apogee_km":540.5941332577,"semimajor_km":6917.879542286,"source":"CELESTRAK","updated_at":"2026-05-25T13:38:17.534656Z"}}